Time,TemperatureF,DewpointF,PressureIn,WindDirection,WindDirectionDegrees,WindSpeedMPH,WindSpeedGustMPH,Humidity,HourlyPrecipIn,Conditions,Clouds,dailyrainin,SolarRadiationWatts/m^2,SoftwareType,DateUTC
2013-02-18 00:09:00,36.8,32.0,30.34,NNW,339,0.0,0.0,83,0.00,,,0.00,0,weatherlink.com 1.10,2013-02-18 05:09:00,
2013-02-18 00:24:00,36.4,32.0,30.34,NNW,339,0.0,0.0,84,0.00,,,0.00,0,weatherlink.com 1.10,2013-02-18 05:24:00,
2013-02-18 00:39:00,36.3,32.0,30.34,NNW,339,0.0,0.0,85,0.00,,,0.00,0,weatherlink.com 1.10,2013-02-18 05:39:00,
2013-02-18 00:54:00,36.2,33.0,30.34,NNW,339,0.0,0.0,87,0.00,,,0.00,0,weatherlink.com 1.10,2013-02-18 05:54:00,
2013-02-18 01:09:00,35.9,33.0,30.34,NNW,339,0.0,0.0,88,0.00,,,0.00,0,weatherlink.com 1.10,2013-02-18 06:09:00,
2013-02-18 01:24:00,35.6,32.0,30.34,NNW,339,0.0,0.0,88,0.00,,,0.00,0,weatherlink.com 1.10,2013-02-18 06:24:00,
2013-02-18 01:39:00,35.7,33.0,30.34,NNW,339,0.0,0.0,89,0.00,,,0.00,0,weatherlink.com 1.10,2013-02-18 06:39:00,
2013-02-18 01:55:00,35.9,33.0,30.33,NNW,339,0.0,1.0,89,0.00,,,0.00,0,weatherlink.com 1.10,2013-02-18 06:55:00,
2013-02-18 02:09:00,36.1,33.0,30.33,NNW,339,0.0,1.0,89,0.00,,,0.00,0,weatherlink.com 1.10,2013-02-18 07:09:00,
2013-02-18 02:24:00,36.9,34.0,30.33,NNW,339,1.0,2.0,88,0.00,,,0.00,0,weatherlink.com 1.10,2013-02-18 07:24:00,
2013-02-18 02:40:00,37.0,33.0,30.32,NNW,339,0.0,0.0,86,0.00,,,0.00,0,weatherlink.com 1.10,2013-02-18 07:40:00,
2013-02-18 02:55:00,36.4,33.0,30.32,NNW,339,0.0,0.0,87,0.00,,,0.00,0,weatherlink.com 1.10,2013-02-18 07:55:00,
2013-02-18 03:10:00,36.0,33.0,30.33,NNW,339,0.0,1.0,88,0.00,,,0.00,0,weatherlink.com 1.10,2013-02-18 08:10:00,
2013-02-18 03:24:00,35.7,33.0,30.33,NNW,339,0.0,0.0,89,0.00,,,0.00,0,weatherlink.com 1.10,2013-02-18 08:24:00,
2013-02-18 03:39:00,35.6,33.0,30.32,NNW,339,0.0,0.0,90,0.00,,,0.00,0,weatherlink.com 1.10,2013-02-18 08:39:00,
2013-02-18 03:54:00,37.1,35.0,30.32,NNW,340,0.0,3.0,90,0.00,,,0.00,0,weatherlink.com 1.10,2013-02-18 08:54:00,
2013-02-18 04:09:00,37.5,34.0,30.32,North,355,0.0,2.0,87,0.00,,,0.00,0,weatherlink.com 1.10,2013-02-18 09:09:00,
2013-02-18 04:24:00,37.4,34.0,30.32,NNW,348,1.0,4.0,88,0.00,,,0.00,0,weatherlink.com 1.10,2013-02-18 09:24:00,
2013-02-18 04:39:00,40.1,35.0,30.32,NE,43,0.0,4.0,83,0.00,,,0.00,0,weatherlink.com 1.10,2013-02-18 09:39:00,
2013-02-18 04:55:00,40.6,35.0,30.31,NNE,17,4.0,4.0,80,0.00,,,0.00,0,weatherlink.com 1.10,2013-02-18 09:55:00,
2013-02-18 05:10:00,40.9,35.0,30.31,NNE,33,1.0,5.0,78,0.00,,,0.00,0,weatherlink.com 1.10,2013-02-18 10:10:00,
2013-02-18 05:25:00,41.0,34.0,30.32,North,355,2.0,4.0,77,0.00,,,0.00,0,weatherlink.com 1.10,2013-02-18 10:25:00,
2013-02-18 05:40:00,41.0,34.0,30.32,NE,50,1.0,5.0,77,0.00,,,0.00,0,weatherlink.com 1.10,2013-02-18 10:40:00,
2013-02-18 05:55:00,41.1,34.0,30.32,NE,53,2.0,5.0,76,0.00,,,0.00,0,weatherlink.com 1.10,2013-02-18 10:55:00,
2013-02-18 06:10:00,41.1,34.0,30.33,NE,52,2.0,7.0,76,0.00,,,0.00,0,weatherlink.com 1.10,2013-02-18 11:10:00,
2013-02-18 06:25:00,40.7,34.0,30.33,North,11,2.0,5.0,76,0.00,,,0.00,0,weatherlink.com 1.10,2013-02-18 11:25:00,
2013-02-18 06:40:00,40.6,34.0,30.33,ENE,59,1.0,6.0,77,0.00,,,0.00,0,weatherlink.com 1.10,2013-02-18 11:40:00,
2013-02-18 06:55:00,40.2,34.0,30.33,NNE,23,0.0,5.0,77,0.00,,,0.00,0,weatherlink.com 1.10,2013-02-18 11:55:00,
2013-02-18 07:10:00,40.4,34.0,30.34,NNE,15,4.0,4.0,78,0.00,,,0.00,7,weatherlink.com 1.10,2013-02-18 12:10:00,
2013-02-18 07:25:00,40.6,34.0,30.33,NE,36,3.0,4.0,78,0.00,,,0.00,19,weatherlink.com 1.10,2013-02-18 12:25:00,
2013-02-18 07:40:00,41.5,35.0,30.34,ENE,65,3.0,5.0,77,0.00,,,0.00,58,weatherlink.com 1.10,2013-02-18 12:40:00,
2013-02-18 07:55:00,42.8,36.0,30.34,NNE,28,2.0,4.0,76,0.00,,,0.00,102,weatherlink.com 1.10,2013-02-18 12:55:00,
2013-02-18 08:10:00,44.3,36.0,30.34,NE,42,2.0,5.0,72,0.00,,,0.00,102,weatherlink.com 1.10,2013-02-18 13:10:00,
2013-02-18 08:25:00,45.9,37.0,30.35,NNE,32,1.0,4.0,72,0.00,,,0.00,206,weatherlink.com 1.10,2013-02-18 13:25:00,
2013-02-18 08:40:00,48.0,36.0,30.35,ENE,66,1.0,7.0,63,0.00,,,0.00,260,weatherlink.com 1.10,2013-02-18 13:40:00,
2013-02-18 08:55:00,49.0,35.0,30.35,NE,54,1.0,7.0,58,0.00,,,0.00,318,weatherlink.com 1.10,2013-02-18 13:55:00,
2013-02-18 09:10:00,50.4,32.0,30.35,ENE,74,2.0,8.0,50,0.00,,,0.00,374,weatherlink.com 1.10,2013-02-18 14:10:00,
2013-02-18 09:25:00,51.0,30.0,30.35,ENE,69,4.0,11.0,44,0.00,,,0.00,429,weatherlink.com 1.10,2013-02-18 14:25:00,
2013-02-18 09:41:00,51.7,28.0,30.35,East,98,9.0,11.0,40,0.00,,,0.00,483,weatherlink.com 1.10,2013-02-18 14:41:00,
2013-02-18 09:55:00,52.5,29.0,30.35,East,100,3.0,11.0,41,0.00,,,0.00,531,weatherlink.com 1.10,2013-02-18 14:55:00,
2013-02-18 10:11:00,53.6,30.0,30.36,North,360,1.0,8.0,40,0.00,,,0.00,577,weatherlink.com 1.10,2013-02-18 15:11:00,
2013-02-18 10:26:00,55.7,30.0,30.36,East,81,3.0,9.0,38,0.00,,,0.00,619,weatherlink.com 1.10,2013-02-18 15:26:00,
2013-02-18 10:41:00,55.6,30.0,30.35,ESE,115,3.0,11.0,38,0.00,,,0.00,657,weatherlink.com 1.10,2013-02-18 15:41:00,
2013-02-18 10:56:00,57.1,31.0,30.35,East,80,2.0,10.0,38,0.00,,,0.00,691,weatherlink.com 1.10,2013-02-18 15:56:00,
2013-02-18 11:11:00,57.6,33.0,30.35,ENE,75,3.0,10.0,40,0.00,,,0.00,719,weatherlink.com 1.10,2013-02-18 16:11:00,
2013-02-18 11:26:00,58.5,35.0,30.35,NE,49,5.0,9.0,42,0.00,,,0.00,749,weatherlink.com 1.10,2013-02-18 16:26:00,
2013-02-18 11:41:00,59.7,38.0,30.34,SE,132,6.0,12.0,45,0.00,,,0.00,782,weatherlink.com 1.10,2013-02-18 16:41:00,
2013-02-18 11:56:00,60.6,38.0,30.33,East,98,3.0,9.0,44,0.00,,,0.00,803,weatherlink.com 1.10,2013-02-18 16:56:00,
2013-02-18 12:11:00,61.6,39.0,30.32,ESE,119,8.0,13.0,44,0.00,,,0.00,821,weatherlink.com 1.10,2013-02-18 17:11:00,
2013-02-18 12:26:00,61.9,40.0,30.31,ESE,119,8.0,14.0,45,0.00,,,0.00,831,weatherlink.com 1.10,2013-02-18 17:26:00,
2013-02-18 12:41:00,64.2,41.0,30.30,East,94,11.0,13.0,43,0.00,,,0.00,842,weatherlink.com 1.10,2013-02-18 17:41:00,
2013-02-18 12:56:00,63.5,40.0,30.30,East,88,7.0,14.0,43,0.00,,,0.00,842,weatherlink.com 1.10,2013-02-18 17:56:00,
2013-02-18 13:11:00,65.6,42.0,30.29,ESE,113,8.0,12.0,43,0.00,,,0.00,840,weatherlink.com 1.10,2013-02-18 18:11:00,
2013-02-18 13:27:00,65.4,43.0,30.28,SE,130,5.0,14.0,45,0.00,,,0.00,837,weatherlink.com 1.10,2013-02-18 18:27:00,
2013-02-18 13:42:00,65.4,43.0,30.27,East,94,6.0,16.0,44,0.00,,,0.00,823,weatherlink.com 1.10,2013-02-18 18:42:00,
2013-02-18 13:56:00,66.8,43.0,30.26,SE,143,6.0,12.0,43,0.00,,,0.00,805,weatherlink.com 1.10,2013-02-18 18:56:00,
2013-02-18 14:11:00,68.4,44.0,30.25,ESE,121,4.0,11.0,42,0.00,,,0.00,786,weatherlink.com 1.10,2013-02-18 19:11:00,
2013-02-18 14:26:00,66.9,44.0,30.25,ESE,116,11.0,13.0,44,0.00,,,0.00,763,weatherlink.com 1.10,2013-02-18 19:26:00,
2013-02-18 14:41:00,68.5,45.0,30.25,East,98,6.0,14.0,43,0.00,,,0.00,673,weatherlink.com 1.10,2013-02-18 19:41:00,
2013-02-18 14:56:00,68.9,45.0,30.24,ESE,113,7.0,12.0,43,0.00,,,0.00,712,weatherlink.com 1.10,2013-02-18 19:56:00,
2013-02-18 15:12:00,67.4,45.0,30.24,ESE,123,7.0,12.0,45,0.00,,,0.00,722,weatherlink.com 1.10,2013-02-18 20:12:00,
2013-02-18 15:26:00,68.8,45.0,30.24,South,173,4.0,16.0,43,0.00,,,0.00,712,weatherlink.com 1.10,2013-02-18 20:26:00,
2013-02-18 15:42:00,70.1,46.0,30.23,East,90,6.0,9.0,43,0.00,,,0.00,707,weatherlink.com 1.10,2013-02-18 20:42:00,
2013-02-18 15:56:00,69.0,46.0,30.23,ESE,113,8.0,13.0,44,0.00,,,0.00,642,weatherlink.com 1.10,2013-02-18 20:56:00,
2013-02-18 16:11:00,70.2,47.0,30.23,ESE,111,8.0,12.0,43,0.00,,,0.00,552,weatherlink.com 1.10,2013-02-18 21:11:00,
2013-02-18 16:27:00,69.7,47.0,30.23,SW,232,1.0,6.0,44,0.00,,,0.00,278,weatherlink.com 1.10,2013-02-18 21:27:00,
2013-02-18 16:42:00,71.3,49.0,30.23,SSE,153,1.0,7.0,45,0.00,,,0.00,499,weatherlink.com 1.10,2013-02-18 21:42:00,
2013-02-18 16:57:00,69.8,48.0,30.23,SSW,206,7.0,9.0,46,0.00,,,0.00,415,weatherlink.com 1.10,2013-02-18 21:57:00,
2013-02-18 17:12:00,69.4,48.0,30.23,SW,223,4.0,7.0,47,0.00,,,0.00,255,weatherlink.com 1.10,2013-02-18 22:12:00,
2013-02-18 17:27:00,68.5,48.0,30.22,SW,218,0.0,6.0,48,0.00,,,0.00,197,weatherlink.com 1.10,2013-02-18 22:27:00,
2013-02-18 17:42:00,67.2,46.0,30.22,SSW,202,0.0,3.0,47,0.00,,,0.00,132,weatherlink.com 1.10,2013-02-18 22:42:00,
2013-02-18 17:57:00,66.4,48.0,30.22,SW,225,1.0,4.0,51,0.00,,,0.00,74,weatherlink.com 1.10,2013-02-18 22:57:00,
2013-02-18 18:27:00,61.1,47.0,30.22,West,281,1.0,3.0,61,0.00,,,0.00,5,weatherlink.com 1.10,2013-02-18 23:27:00,
2013-02-18 18:42:00,60.0,48.0,30.22,West,281,1.0,2.0,65,0.00,,,0.00,0,weatherlink.com 1.10,2013-02-18 23:42:00,
2013-02-18 18:57:00,58.0,48.0,30.22,West,281,1.0,2.0,70,0.00,,,0.00,0,weatherlink.com 1.10,2013-02-18 23:57:00,
2013-02-18 19:12:00,56.8,48.0,30.22,West,281,0.0,2.0,73,0.00,,,0.00,0,weatherlink.com 1.10,2013-02-19 00:12:00,
2013-02-18 19:27:00,55.8,48.0,30.22,West,281,0.0,1.0,75,0.00,,,0.00,0,weatherlink.com 1.10,2013-02-19 00:27:00,
2013-02-18 19:42:00,55.3,48.0,30.22,West,281,1.0,1.0,76,0.00,,,0.00,0,weatherlink.com 1.10,2013-02-19 00:42:00,
2013-02-18 19:57:00,56.3,50.0,30.23,West,281,1.0,2.0,79,0.00,,,0.00,0,weatherlink.com 1.10,2013-02-19 00:57:00,
2013-02-18 20:12:00,56.4,50.0,30.24,NNW,342,0.0,3.0,80,0.00,,,0.00,0,weatherlink.com 1.10,2013-02-19 01:12:00,
2013-02-18 20:27:00,55.4,50.0,30.23,NNW,342,0.0,2.0,81,0.00,,,0.00,0,weatherlink.com 1.10,2013-02-19 01:27:00,
2013-02-18 20:42:00,54.1,49.0,30.23,NNW,342,0.0,0.0,83,0.00,,,0.00,0,weatherlink.com 1.10,2013-02-19 01:42:00,
2013-02-18 20:57:00,53.6,49.0,30.23,NNW,342,0.0,2.0,83,0.00,,,0.00,0,weatherlink.com 1.10,2013-02-19 01:57:00,
2013-02-18 21:12:00,53.3,48.0,30.23,NE,38,0.0,0.0,83,0.00,,,0.00,0,weatherlink.com 1.10,2013-02-19 02:12:00,
2013-02-18 21:27:00,52.8,48.0,30.22,NE,38,0.0,0.0,84,0.00,,,0.00,0,weatherlink.com 1.10,2013-02-19 02:27:00,
2013-02-18 21:42:00,52.1,48.0,30.22,NE,38,0.0,0.0,86,0.00,,,0.00,0,weatherlink.com 1.10,2013-02-19 02:42:00,
2013-02-18 21:57:00,51.4,48.0,30.22,NE,38,0.0,0.0,88,0.00,,,0.00,0,weatherlink.com 1.10,2013-02-19 02:57:00,
2013-02-18 22:12:00,50.8,48.0,30.22,NE,38,0.0,0.0,89,0.00,,,0.00,0,weatherlink.com 1.10,2013-02-19 03:12:00,
2013-02-18 22:27:00,50.3,48.0,30.22,NE,38,0.0,0.0,91,0.00,,,0.00,0,weatherlink.com 1.10,2013-02-19 03:27:00,
2013-02-18 22:42:00,49.5,47.0,30.21,NE,38,0.0,0.0,91,0.00,,,0.00,0,weatherlink.com 1.10,2013-02-19 03:42:00,
2013-02-18 22:57:00,49.2,47.0,30.21,NE,38,0.0,0.0,92,0.00,,,0.00,0,weatherlink.com 1.10,2013-02-19 03:57:00,
2013-02-18 23:27:00,50.2,48.0,30.20,SE,126,0.0,3.0,92,0.00,,,0.00,0,weatherlink.com 1.10,2013-02-19 04:27:00,
2013-02-18 23:42:00,52.7,50.0,30.20,East,96,3.0,3.0,89,0.00,,,0.00,0,weatherlink.com 1.10,2013-02-19 04:42:00,
2013-02-18 23:57:00,54.9,50.0,30.20,SE,130,0.0,4.0,82,0.00,,,0.00,0,weatherlink.com 1.10,2013-02-19 04:57:00,